2024/01/25 00:00:00,33.1,-1.8
2024/01/25 00:10:00,33.3,-2.0
2024/01/25 00:20:00,34.1,-1.8
2024/01/25 00:30:00,34.4,-1.9
2024/01/25 00:40:00,34.6,-2.3
2024/01/25 00:50:00,34.6,-2.1
2024/01/25 01:00:00,34.7,-1.9
2024/01/25 01:10:00,34.6,-1.9
2024/01/25 01:20:00,34.9,-1.8
2024/01/25 01:30:00,35.9,-1.9
2024/01/25 01:40:00,36.0,-2.4
2024/01/25 01:50:00,35.9,-2.7
2024/01/25 02:00:00,35.6,-2.8
2024/01/25 02:10:00,35.3,-2.6
2024/01/25 02:20:00,35.2,-2.4
2024/01/25 02:30:00,35.3,-2.3
2024/01/25 02:40:00,35.8,-2.2
2024/01/25 02:50:00,36.0,-2.3
2024/01/25 03:00:00,35.9,-2.3
2024/01/25 03:10:00,35.8,-2.3
2024/01/25 03:20:00,35.9,-2.2
2024/01/25 03:30:00,36.2,-2.4
2024/01/25 03:40:00,36.3,-2.4
2024/01/25 03:50:00,36.1,-2.3
2024/01/25 04:00:00,36.9,-2.3
2024/01/25 04:10:00,37.2,-2.2
2024/01/25 04:20:00,37.8,-2.1
2024/01/25 04:30:00,38.1,-2.1
2024/01/25 04:40:00,38.0,-2.4
2024/01/25 04:50:00,37.9,-2.1
2024/01/25 05:00:00,38.4,-2.0
2024/01/25 05:10:00,39.0,-2.1
2024/01/25 05:20:00,39.1,-2.2
2024/01/25 05:30:00,39.0,-2.0
2024/01/25 05:40:00,39.3,-1.8
2024/01/25 05:50:00,39.5,-2.0
2024/01/25 06:00:00,39.6,-2.4
2024/01/25 06:10:00,40.2,-1.8
2024/01/25 06:20:00,40.1,-1.9
2024/01/25 06:30:00,39.8,-1.9
2024/01/25 06:40:00,40.1,-1.8
2024/01/25 06:50:00,40.8,-1.9
2024/01/25 07:00:00,41.2,-1.9
2024/01/25 07:10:00,41.0,-2.1
2024/01/25 07:20:00,40.7,-1.9
2024/01/25 07:30:00,40.9,-1.7
2024/01/25 07:40:00,40.7,-1.6
2024/01/25 07:50:00,40.7,-1.4
2024/01/25 08:00:00,---,-1.3
2024/01/25 08:10:00,---,-1.2
2024/01/25 08:20:00,---,-1.0
2024/01/25 08:30:00,---,-0.9
2024/01/25 08:40:00,---,-0.8
2024/01/25 08:50:00,53.4,-0.9
2024/01/25 09:00:00, 0.0,-0.9
2024/01/25 09:10:00, 0.0,-0.9
2024/01/25 09:20:00,---,-0.5
2024/01/25 09:30:00,---,-0.6
2024/01/25 09:40:00,55.5,-0.6
2024/01/25 09:50:00,55.7, 0.3
2024/01/25 10:00:00,---, 1.0
2024/01/25 10:10:00,---, 0.7
2024/01/25 10:20:00,---, 1.1
2024/01/25 10:30:00,---, 1.7
2024/01/25 10:40:00,---, 1.7
2024/01/25 10:50:00,---, 1.7
2024/01/25 11:00:00,---, 1.8
2024/01/25 11:10:00, 0.0, 0.5
2024/01/25 11:20:00,---, 0.9
2024/01/25 11:30:00,---, 1.2
2024/01/25 11:40:00,---, 1.0
2024/01/25 11:50:00,100.5, 1.8
2024/01/25 12:00:00,107.7, 1.5
2024/01/25 12:10:00,---, 1.3
2024/01/25 12:20:00,---, 2.7
2024/01/25 12:30:00,74.7, 2.6
2024/01/25 12:40:00,49.2, 1.3
2024/01/25 12:50:00,49.2, 1.2
2024/01/25 13:00:00,50.1, 1.2
2024/01/25 13:10:00,50.7, 2.4
2024/01/25 13:20:00,50.5, 2.7
2024/01/25 13:30:00,50.3, 2.5
2024/01/25 13:40:00,50.0, 2.1
2024/01/25 13:50:00,49.5, 1.3
2024/01/25 14:00:00,49.1, 1.1
2024/01/25 14:10:00,49.7, 0.7
2024/01/25 14:20:00,50.4, 1.2
2024/01/25 14:30:00,50.7, 1.8
2024/01/25 14:40:00,50.5, 1.5
2024/01/25 14:50:00,50.2, 1.0
2024/01/25 15:00:00,50.2, 0.7
2024/01/25 15:10:00,50.2, 0.5
2024/01/25 15:20:00,50.5, 0.2
2024/01/25 15:30:00,51.2, 0.2
2024/01/25 15:40:00,51.4, 0.2
2024/01/25 15:50:00,51.5, 0.9
2024/01/25 16:00:00,51.3, 0.6
2024/01/25 16:10:00,51.0, 0.3
2024/01/25 16:20:00,51.3, 0.3
2024/01/25 16:30:00,51.2, 0.2
2024/01/25 16:40:00,51.2,-0.1
2024/01/25 16:50:00,51.4,-0.1
2024/01/25 17:00:00,51.5,-0.1
2024/01/25 17:10:00,51.5,-0.2
2024/01/25 17:20:00,---,-0.2
2024/01/25 17:30:00,72.9,-0.2
2024/01/25 17:40:00,72.7,-0.2
2024/01/25 17:50:00,72.8,-0.2
2024/01/25 18:00:00,72.9,-0.3
2024/01/25 18:10:00,72.8,-0.3
2024/01/25 18:20:00,72.8,-0.5
2024/01/25 18:30:00,72.5,-0.6
2024/01/25 18:40:00,72.1,-0.3
2024/01/25 18:50:00,72.0,-0.4
2024/01/25 19:00:00,72.5,-0.3
2024/01/25 19:10:00,72.9,-0.3
2024/01/25 19:20:00,73.4,-0.4
2024/01/25 19:30:00,73.2,-0.4
2024/01/25 19:40:00,73.1,-0.5
2024/01/25 19:50:00,73.1,-0.2
2024/01/25 20:00:00,73.0,-0.4
2024/01/25 20:10:00,72.8,-0.4
2024/01/25 20:20:00,72.9,-0.6
2024/01/25 20:30:00,73.0,-0.3
2024/01/25 20:40:00,73.2,-0.4
2024/01/25 20:50:00,73.1,-0.3
2024/01/25 21:00:00,73.0,-0.5
2024/01/25 21:10:00,72.8,-0.4
2024/01/25 21:20:00,72.9,-0.4
2024/01/25 21:30:00,72.7,-0.4
2024/01/25 21:40:00,73.0,-0.3
2024/01/25 21:50:00,73.1,-0.5
2024/01/25 22:00:00,73.1,-0.4
2024/01/25 22:10:00,73.1,-0.4
2024/01/25 22:20:00,72.9,-0.2
2024/01/25 22:30:00,72.8,-0.2
2024/01/25 22:40:00,72.5,-0.3
2024/01/25 22:50:00,72.4,-0.6
2024/01/25 23:00:00,72.3,-0.6
2024/01/25 23:10:00,72.3,-0.4
2024/01/25 23:20:00,72.3,-0.6
2024/01/25 23:30:00,72.6,-0.5
2024/01/25 23:40:00,73.3,-0.7
2024/01/25 23:50:00,73.2,-0.5
